CW0467 Weather Reports


time (UTC)temp
F
wind
direction
speed
knots
gust
knots
rain 1hr
in
rain 24hr
in
rain mn
in
humidity
%
barometer
mb
20260505091709 50 167 1.7 5.2 0.00 0.00 0.00 87 1010.9
20260505085711 50 242 2.6 5.2 0.00 0.00 0.00 87 1011.0
20260505084710 49 233 1.7 6.1 0.00 0.00 0.00 86 1011.0
20260505082710 50 186 0.0 0.0 0.00 0.00 0.00 86 1011.0
20260505075710 50 205 0.9 2.6 0.00 0.00 0.00 86 1011.1
20260505073710 50 222 0.9 4.3 0.00 0.00 0.00 85 1011.3
20260505070711 50 242 0.9 1.7 0.00 0.00 0.00 84 1011.2
20260505063710 51 226 1.7 2.6 0.00 0.00 0.00 83 1011.2
20260505062710 51 171 0.0 4.3 0.00 0.00 0.00 83 1011.2
20260505055711 52 203 1.7 4.3 0.00 0.00 0.00 81 1011.2
20260505054711 52 231 2.6 5.2 0.00 0.00 0.00 81 1011.2
20260505053710 52 224 1.7 5.2 0.00 0.00 0.00 80 1011.2
20260505050709 52 239 1.7 5.2 0.00 0.00 0.00 79 1011.2
20260505034710 53 232 1.7 7.8 0.00 0.00 0.00 77 1011.3
20260505032711 53 226 1.7 8.7 0.00 0.00 0.00 76 1011.3
20260505030710 53 208 2.6 7.0 0.00 0.00 0.00 75 1011.4
20260505024710 54 206 3.5 7.0 0.00 0.00 0.00 74 1011.4
20260505022710 54 236 2.6 6.1 0.00 0.00 0.00 72 1011.4
20260505015710 55 252 4.3 7.8 0.00 0.00 0.00 71 1011.3
20260505014711 55 246 4.3 7.8 0.00 0.00 0.00 71 1011.2
20260505012709 55 265 2.6 8.7 0.00 0.00 0.00 70 1011.0
20260505010710 56 247 4.3 7.8 0.00 0.00 0.00 69 1010.7
20260505004710 56 229 4.3 7.8 0.00 0.00 0.00 67 1010.4
20260505002711 57 256 5.2 7.8 0.00 0.00 0.00 64 1009.9
20260504235711 58 217 4.3 8.7 0.00 0.00 0.00 59 1009.6
20260504231710 60 251 3.5 7.8 0.00 0.00 0.00 51 1009.2
20260504230711 60 239 5.2 10.4 0.00 0.00 0.00 50 1008.9
20260504225710 61 247 5.2 8.7 0.00 0.00 0.00 49 1008.8
20260504224710 61 229 4.3 11.3 0.00 0.00 0.00 48 1008.6
20260504222710 62 247 6.1 11.3 0.00 0.00 0.00 46 1008.4
20260504215710 64 203 2.6 10.4 0.00 0.00 0.00 45 1008.2
20260504214711 65 224 4.3 7.8 0.00 0.00 0.00 44 1008.1
20260504205711 66 207 6.1 11.3 0.00 0.00 0.00 40 1007.9
20260504202710 66 229 4.3 12.2 0.00 0.00 0.00 38 1007.8
20260504201711 66 225 2.6 18.2 0.00 0.00 0.00 39 1007.8
20260504194710 67 216 4.3 13.9 0.00 0.00 0.00 37 1007.8
20260504193710 67 204 7.8 15.6 0.00 0.00 0.00 36 1007.6
20260504192711 68 216 7.0 12.2 0.00 0.00 0.00 35 1007.6
20260504185710 69 226 5.2 12.2 0.00 0.00 0.00 33 1007.7
20260504184710 70 238 5.2 13.0 0.00 0.00 0.00 32 1007.9
20260504182710 70 212 5.2 11.3 0.00 0.00 0.00 31 1008.0
20260504180711 70 251 4.3 13.0 0.00 0.00 0.00 30 1008.1
20260504175715 70 211 6.1 18.2 0.00 0.00 0.00 32 1008.0
20260504173710 71 270 3.5 13.0 0.00 0.00 0.00 30 1008.0
20260504172710 71 249 5.2 13.0 0.00 0.00 0.00 30 1007.9
20260504150711 67 220 2.6 8.7 0.00 0.00 0.00 36 1009.4
20260504130710 60 228 4.3 7.8 0.00 0.00 0.00 47 1010.6
20260504110709 48 261 0.0 2.6 0.00 0.00 0.00 66 1010.6